Weather History for Crestview, FL

Change the Weather History Date:

Friday, May 9, 2014

  Actual Average Record
Temperature  
Mean Temperature 76 °F -  
Max Temperature 82 °F 82 °F 93 °F (2011)
Min Temperature 71 °F 59 °F 47 °F (1992)
Cooling Degree Days 12    
Growing Degree Days 26 (Base 50)    
Moisture  
Dew Point 71 °F    
Average Humidity 85    
Maximum Humidity 97    
Minimum Humidity 65    
Precipitation  
Precipitation 0.00 in - - ()
Sea Level Pressure  
Sea Level Pressure 30.10 in    
Wind  
Wind Speed 5 mph (SE)    
Max Wind Speed 17 mph    
Max Gust Speed 24 mph    
Visibility 7 miles    
Events Rain    
Averages and records for this station are not official NWS values.
T = Trace of Precipitation, MM = Missing Value Source: NWS Daily Summary

Daily Weather History Graph

Daily Weather History Graph

Search for Another Location

Airport:

Trip Planner

Search our weather history database for the weather conditions in past years. The results will help you decide how hot, cold, wet, or windy it might be!

Date:

Astronomy

May. 09, 2014 Rise Set
Actual Time 5:55 AM CDT 7:30 PM CDT
Civil Twilight 5:29 AM CDT 7:56 PM CDT
Nautical Twilight 4:58 AM CDT 8:27 PM CDT
Astronomical Twilight 4:25 AM CDT 9:00 PM CDT
Moon 2:47 PM CDT (5/9) 2:35 AM CDT (5/9)
Length of Visible Light 14h 26m
Length of Day
13h 34m
Waxing Gibbous, 74% of the Moon is Illuminated
May 9
Waxing Gibbous
May 14
Full
May 21
Last Quarter
May 28
New
Jun 5
First Quarter

Hourly Weather History & Observations

Time (CDT) Temp. Heat Index Dew Point Humidity Pressure Visibility Wind Dir Wind Speed Gust Speed Precip Events Conditions
12:15 AM 73.9 °F - 71.1 °F 91% 30.13 in 9.0 mi Calm Calm - N/A   Overcast
12:53 AM 73.0 °F - 70.0 °F 90% 30.12 in 7.0 mi SE 3.5 mph - N/A   Overcast
1:53 AM 73.0 °F - 71.1 °F 93% 30.10 in 7.0 mi SE 3.5 mph - N/A   Overcast
2:29 AM 73.0 °F - 71.1 °F 93% 30.09 in 7.0 mi Calm Calm - N/A   Scattered Clouds
2:46 AM 73.0 °F - 71.1 °F 93% 30.09 in 7.0 mi SW 3.5 mph - N/A   Partly Cloudy
2:53 AM 73.0 °F - 71.1 °F 93% 30.08 in 7.0 mi SSW 3.5 mph - N/A   Scattered Clouds
3:37 AM 72.0 °F - 70.0 °F 93% 30.08 in 4.0 mi East 3.5 mph - N/A   Mostly Cloudy
3:53 AM 71.1 °F - 70.0 °F 96% 30.07 in 3.0 mi Calm Calm - N/A   Overcast
4:02 AM 71.1 °F - 69.1 °F 93% 30.08 in 2.5 mi Calm Calm - N/A   Overcast
4:04 AM 71.1 °F - 69.1 °F 93% 30.08 in 3.0 mi ESE 3.5 mph - N/A   Overcast
4:30 AM 71.1 °F - 70.0 °F 96% 30.08 in 3.0 mi ESE 4.6 mph - N/A   Mostly Cloudy
4:50 AM 71.6 °F - 69.8 °F 94% 30.08 in 3.0 mi ESE 3.5 mph - N/A   Mostly Cloudy
4:53 AM 71.1 °F - 70.0 °F 96% 30.08 in 3.0 mi ESE 4.6 mph - N/A   Mostly Cloudy
5:26 AM 72.0 °F - 70.0 °F 93% 30.09 in 2.5 mi ESE 5.8 mph - N/A   Overcast
5:39 AM 72.0 °F - 70.0 °F 93% 30.10 in 3.0 mi ESE 5.8 mph - N/A   Overcast
5:53 AM 72.0 °F - 71.1 °F 97% 30.10 in 3.0 mi ESE 5.8 mph - N/A   Overcast
6:03 AM 72.0 °F - 71.1 °F 97% 30.11 in 2.5 mi SE 4.6 mph - N/A   Overcast
6:16 AM 72.0 °F - 71.1 °F 97% 30.12 in 1.0 mi SE 5.8 mph - N/A   Overcast
6:26 AM 72.0 °F - 71.1 °F 97% 30.13 in 1.2 mi SE 4.6 mph - N/A   Overcast
6:44 AM 73.0 °F - 71.1 °F 93% 30.13 in 2.5 mi ESE 3.5 mph - N/A   Overcast
6:51 AM 73.4 °F - 71.6 °F 94% 30.14 in 3.0 mi ESE 3.5 mph - N/A   Overcast
6:52 AM 73.0 °F - 71.1 °F 93% 30.13 in 3.0 mi ESE 3.5 mph - N/A   Overcast
7:53 AM 75.0 °F - 72.0 °F 90% 30.14 in 7.0 mi SSE 4.6 mph - N/A   Overcast
8:31 AM 77.0 °F - 72.0 °F 84% 30.15 in 10.0 mi SSE 6.9 mph - N/A   Overcast
8:53 AM 78.1 °F - 71.1 °F 79% 30.15 in 10.0 mi Variable 5.8 mph - N/A   Mostly Cloudy
9:03 AM 78.1 °F - 71.1 °F 79% 30.16 in 10.0 mi SSE 8.1 mph - N/A   Mostly Cloudy
10:22 AM 81.0 °F 84.4 °F 70.0 °F 69% 30.15 in 10.0 mi Variable 6.9 mph - N/A   Mostly Cloudy
10:53 AM 80.1 °F 82.9 °F 69.1 °F 69% 30.14 in 10.0 mi South 10.4 mph 17.3 mph N/A   Partly Cloudy
11:53 AM 81.0 °F 84.4 °F 70.0 °F 69% 30.14 in 10.0 mi SSE 8.1 mph 21.9 mph N/A   Mostly Cloudy
12:00 PM 80.1 °F 83.2 °F 70.0 °F 71% 30.14 in 10.0 mi South 11.5 mph 19.6 mph N/A   Mostly Cloudy
12:53 PM 80.1 °F 83.2 °F 70.0 °F 71% 30.12 in 10.0 mi SSE 8.1 mph 18.4 mph N/A   Mostly Cloudy
1:24 PM 81.0 °F 84.1 °F 69.1 °F 67% 30.12 in 10.0 mi South 12.7 mph 20.7 mph N/A   Mostly Cloudy
1:53 PM 82.0 °F 85.5 °F 69.1 °F 65% 30.11 in 10.0 mi South 17.3 mph 24.2 mph N/A   Mostly Cloudy
2:34 PM 82.0 °F 85.5 °F 69.1 °F 65% 30.10 in 10.0 mi South 12.7 mph 21.9 mph N/A   Mostly Cloudy
2:43 PM 82.9 °F 87.0 °F 70.0 °F 65% 30.10 in 10.0 mi South 11.5 mph 20.7 mph N/A   Scattered Clouds
2:53 PM 81.0 °F 84.1 °F 69.1 °F 67% 30.09 in 10.0 mi SSE 8.1 mph 19.6 mph N/A   Mostly Cloudy
3:53 PM 80.1 °F 83.2 °F 70.0 °F 71% 30.07 in 10.0 mi South 11.5 mph 21.9 mph 0.00 in   Overcast
4:53 PM 79.0 °F - 70.0 °F 74% 30.06 in 10.0 mi SSE 8.1 mph 18.4 mph N/A   Overcast
5:12 PM 79.0 °F - 70.0 °F 74% 30.07 in 10.0 mi South 5.8 mph 17.3 mph N/A   Mostly Cloudy
5:26 PM 79.0 °F - 70.0 °F 74% 30.06 in 10.0 mi SSE 8.1 mph - N/A   Mostly Cloudy
5:53 PM 78.1 °F - 70.0 °F 76% 30.06 in 10.0 mi South 9.2 mph 17.3 mph N/A   Overcast
7:20 PM 77.0 °F - 71.1 °F 82% 30.06 in 9.0 mi SSE 8.1 mph - N/A   Overcast
7:38 PM 75.9 °F - 71.1 °F 85% 30.06 in 10.0 mi SSE 8.1 mph - N/A   Mostly Cloudy
7:50 PM 75.2 °F - 71.6 °F 89% 30.06 in 10.0 mi Variable 5.8 mph - N/A   Mostly Cloudy
7:53 PM 75.9 °F - 71.1 °F 85% 30.05 in 10.0 mi SSE 8.1 mph - N/A   Mostly Cloudy
8:53 PM 75.9 °F - 71.1 °F 85% 30.06 in 10.0 mi SSE 6.9 mph - N/A   Overcast
10:20 PM 75.0 °F - 71.1 °F 87% 30.08 in 9.0 mi SE 4.6 mph - N/A   Mostly Cloudy
10:51 PM 75.2 °F - 71.6 °F 89% 30.08 in 9.0 mi SE 6.9 mph - N/A   Overcast
10:53 PM 75.0 °F - 71.1 °F 87% 30.07 in 9.0 mi SE 4.6 mph - N/A   Overcast
11:01 PM 75.0 °F - 71.1 °F 87% 30.08 in 9.0 mi ESE 5.8 mph - N/A   Overcast
11:24 PM 75.0 °F - 71.1 °F 87% 30.08 in 8.0 mi Variable 5.8 mph - 0.00 in Rain Light Rain
11:53 PM 75.0 °F - 71.1 °F 87% 30.07 in 8.0 mi SE 4.6 mph - 0.00 in   Overcast